Location: *
(50.5490°S, 120.6730°E)
Time: 06:41:41
(UTC+00:00)

Daily predictions for brighter satellites

Satellite Brightness Start Highest point End
(mag) Time Altitude Azimuth Time Altitude Azimuth Time Altitude Azimuth
ATLAS 3B R/B 3.0 12:24:55 10° SW 12:32:22 90° ESE 12:39:56 10° NE
Cosmos 1939 Rocket 3.0 12:31:17 10° SSE 12:35:10 52° E 12:38:59 10° N
Meteor 1-29 4.0 12:32:41 10° N 12:36:07 49° W 12:39:36 10° SSW
Cosmos 2285 Rocket 4.4 12:30:14 10° SSW 12:36:34 54° ESE 12:42:48 10° NE
CENTAUR R/B 3.7 12:31:50 10° SW 12:37:50 36° SSE 12:43:13 10° E
Lacrosse 5 rocket 1.6 12:33:55 10° NW 12:38:20 55° NE 12:42:35 10° ESE
Envisat 3.1 12:36:06 10° SSE 12:41:19 87° ENE 12:46:28 10° NNW
Cosmos 1777 Rocket 4.1 12:39:55 10° NNW 12:45:15 83° ENE 12:50:39 10° SSE
Cosmos 2297 Rocket 3.3 12:42:00 10° SSW 12:47:11 34° SE 12:52:19 10° ENE
Cosmos 1340 3.4 12:49:18 10° NNW 12:53:06 59° WSW 12:56:57 10° S
Tiangong 2 3.5 12:55:00 10° NW 12:56:28 12° NNW 12:57:55 10° N
USA 186 2.8 12:55:05 10° S 12:57:51 42° WSW 13:00:22 10° NW
SME Rocket 3.6 12:54:42 10° SSE 12:58:45 37° E 13:02:17 10° NNE
Cosmos 1437 4.0 12:56:04 10° NNW 12:59:10 45° WSW 13:02:21 10° S
Cosmos 2084 3.7 12:58:40 10° NW 13:03:17 89° NE 13:08:12 10° SE
USA 267 3.4 12:57:12 10° ESE 13:03:37 50° NE 13:09:59 10° NNW
Cosmos 1680 Rocket 3.8 13:00:54 10° SSW 13:06:10 70° WNW 13:11:23 10° NNE
Resurs 1-3 4.2 13:09:01 10° S 13:13:28 62° WSW 13:17:50 10° NNW
Cosmos 1862 4.3 13:09:51 10° SSW 13:13:50 47° W 13:17:47 10° NNW
Cosmos 1898 Rocket 4.1 13:10:13 10° NNE 13:14:57 36° ENE 13:19:43 10° SE
Cosmos 2100 Rocket 4.2 13:09:13 10° N 13:15:19 60° E 13:21:36 10° SSE
BREEZE-M DEB (TANK) 2.5 13:11:30 10° W 13:16:03 39° N 13:17:43 16° ENE
CZ-4B R/B 4.3 13:12:19 12° NE 13:16:53 43° ESE 13:21:52 10° S
Cosmos 1908 Rocket 4.4 13:13:42 10° S 13:17:52 38° ESE 13:21:09 15° NE
H-2A R/B 3.0 13:13:33 10° SSE 13:18:02 29° E 13:21:33 14° NNE
Gbstr 26 Del rocket 3.1 13:13:46 10° W 13:18:24 75° S 13:22:23 10° E
USA 238 DEB 4.4 13:15:36 10° SW 13:22:24 50° WNW 13:28:51 11° NNE
USA 238 4.4 13:15:43 10° SW 13:22:31 50° WNW 13:28:57 11° NNE
Sich 1 Rocket 4.5 13:20:35 10° S 13:24:48 36° ESE 13:28:00 16° NE
ERS-1 Rocket 3.6 13:20:44 10° SSE 13:25:30 38° E 13:29:30 14° NNE
Cosmos 2219 3.6 13:20:19 10° SW 13:26:03 64° WNW 13:31:15 12° NNE
Meteor 1-26 Rocket 4.4 13:21:51 10° N 13:27:22 57° E 13:32:52 10° SSE
SL-24 DEB 4.3 13:22:57 10° N 13:27:39 87° W 13:32:23 10° S
NOSS 3-2 (A) 3.7 13:21:54 10° SW 13:28:36 69° NW 13:33:38 15° NNE
Cosmos 1862 Rocket 3.7 13:27:12 10° N 13:31:39 64° E 13:36:12 10° SSE
Terra 3.7 13:30:16 10° SE 13:32:55 15° E 13:34:47 12° ENE
Cosmos 2242 Rocket 3.6 13:28:51 10° N 13:33:26 80° E 13:38:03 10° SSE
Cosmos 1459 Rocket 4.1 13:27:28 10° N 13:33:51 75° E 13:40:15 10° SSE
Cosmos 1656 Rocket 4.2 13:28:15 10° NW 13:33:56 66° WSW 13:39:42 10° SSE
Spot 2 Rocket 4.2 13:30:03 10° S 13:35:10 59° WSW 13:40:12 10° NNW
USA 234 3.3 13:35:30 14° NE 13:41:19 77° NNW 13:47:59 10° WSW
Cosmos 1933 4.0 13:37:20 10° NNW 13:41:22 58° WSW 13:45:27 10° S
Cosmos 1441 Rocket 3.9 13:39:34 19° NNE 13:41:56 39° E 13:45:38 10° SSE
Cosmos 1943 Rocket 4.2 13:37:35 10° WNW 13:42:32 32° SW 13:47:31 10° SSE
Resurs 01 Rocket 3.4 13:38:39 10° S 13:42:46 35° WSW 13:46:51 10° NW
Cosmos 2061 Rocket 4.0 13:38:41 10° N 13:44:59 77° E 13:51:27 10° SSE
CZ-4 R/B 4.0 13:42:37 15° N 13:46:39 77° WNW 13:51:30 10° SSW
Aureole 1 Rocket 2.3 13:43:37 10° SSW 13:46:45 64° ESE 13:48:17 26° NE
USA 32 4.1 13:41:53 10° S 13:47:16 85° E 13:51:33 16° N
SL-24 R/B - RUBIN 2 4.1 13:44:39 10° NNW 13:49:34 58° ENE 13:55:09 10° SE
NOAA 11 4.4 13:44:07 10° SSE 13:49:43 76° WSW 13:55:15 10° NNW
BREEZE-M DEB (TANK) 4.1 13:43:20 10° NW 13:49:45 30° N 13:51:32 20° ENE
Tsikada Rocket 4.1 13:44:13 10° S 13:50:27 64° ESE 13:55:01 19° NNE
Cosmos 405 Rocket 2.8 13:52:07 21° N 13:54:28 57° E 13:58:12 10° SSE
USA 245 3.2 13:51:55 10° SSE 13:55:20 43° E 13:56:25 29° NNE
Cosmos 1733 Rocket 4.1 13:52:10 10° SSW 13:56:29 44° W 14:00:33 11° NNW
CZ-2C R/B 2.8 13:52:08 16° N 13:56:34 72° WNW 14:01:56 10° SSW
Cosmos 405 3.3 13:53:39 10° SSW 13:57:20 68° W 13:59:36 21° N
Meteor 1-20 Rocket 4.2 13:52:18 10° SSW 13:58:03 84° W 14:02:15 18° N
MetOp-B 4.1 13:53:52 10° SSE 13:59:20 76° ENE 14:04:13 13° N
Cosmos 2298 Rocket 4.2 13:55:36 14° N 14:00:04 56° ENE 14:05:22 10° SSE
NOSS 3-2 (C) 3.8 13:53:53 10° SW 14:00:27 59° NW 14:04:38 20° NNE
ARGOS 3.1 13:55:09 10° SSE 14:00:37 80° ENE 14:05:37 12° NNW
ASTEX 1 3.5 13:57:04 17° N 14:01:01 83° W 14:06:08 10° S
GEOS 3 Rocket 4.4 13:57:17 10° ESE 14:01:42 29° ENE 14:03:52 22° NNE
SL-8 R/B 3.7 13:59:35 10° W 14:04:24 63° N 14:07:59 17° ENE
Cosmos 1980 Rocket 3.9 14:05:21 14° ENE 14:06:40 16° E 14:09:52 10° ESE
ATLAS 2AS CENTAUR R/B 3.1 14:00:42 10° WNW 14:06:47 58° SW 14:12:47 10° SE
Cosmos 1633 2.7 14:03:43 10° SSW 14:07:29 72° W 14:09:35 24° N
Cosmos 2263 Rocket 4.3 14:04:39 10° SSW 14:08:49 20° SE 14:12:56 10° E
Cosmos 1937 Rocket 3.5 14:04:15 12° NNW 14:09:15 72° ENE 14:14:37 10° SSE
deb Chang Zheng 4 3.6 14:06:57 24° NNE 14:09:40 89° W 14:14:12 10° SSW
Cosmos 1782 2.9 14:07:28 25° N 14:09:42 62° E 14:13:46 10° SSE
Cosmos 1782 Rocket 3.6 14:06:39 10° S 14:11:07 74° E 14:13:33 26° NNE
Cosmos 2227 Rocket 2.4 14:06:02 10° SSW 14:11:44 68° WNW 14:15:27 22° NNE
Mayak -1.0 14:12:53 26° NE 14:15:06 59° ESE 14:19:19 10° S
Iridium 4 Rocket 3.3 14:12:10 21° N 14:15:37 80° E 14:20:23 10° S
Cosmos 2221 Rocket 4.1 14:14:06 26° NNE 14:16:10 45° E 14:20:29 10° SSE
Lacrosse 5 rocket 2.5 14:13:21 10° W 14:17:41 48° SSW 14:21:48 10° SE
Cosmos 2278 4.0 14:18:06 21° N 14:21:36 49° ENE 14:27:05 10° SE
ATLAS 3B R/B 4.3 14:16:27 10° WSW 14:22:22 26° WNW 14:28:02 11° NNW
Cosmos 1602 3.8 14:19:26 10° S 14:23:23 71° ESE 14:25:02 33° NNE
SPOT 5 2.7 14:19:07 10° SSE 14:24:02 75° ENE 14:26:53 23° N
Cosmos 2082 3.9 14:23:08 10° SW 14:28:51 64° WNW 14:32:11 25° N
CENTAUR R/B 2.3 14:22:47 10° SW 14:29:04 80° NW 14:32:26 26° NE
Cosmos 2150 Rocket 4.0 14:25:12 15° NNW 14:29:39 83° ENE 14:35:08 10° SSE
Okean 1-7 3.1 14:27:37 28° N 14:29:53 70° E 14:34:24 10° SSE
NOSS 3-4 (A) 3.9 14:23:16 10° NNW 14:31:11 78° NE 14:38:49 10° SE
NOSS 3-4 (C) 3.9 14:23:23 10° NNW 14:31:18 77° NE 14:38:56 10° SE
Cosmos 2297 Rocket 2.6 14:25:57 10° SW 14:31:32 56° WNW 14:34:49 24° N
Cosmos 2016 Rocket 4.4 14:25:31 10° NNW 14:31:51 63° WSW 14:38:12 10° S
Cosmos 1241 Rocket 4.5 14:25:45 10° NNW 14:32:13 77° NE 14:38:50 10° SE
Helios 1A 3.8 14:28:06 10° S 14:32:19 52° WSW 14:36:04 12° NW
Okean 2 Rocket 3.1 14:29:00 10° S 14:33:39 80° ESE 14:35:49 31° NNE
Cosmos 2151 Rocket 4.2 14:30:19 10° S 14:34:41 46° ESE 14:36:37 28° NE
Cosmos 2369 3.7 14:31:46 20° N 14:35:44 65° ENE 14:41:24 10° SE
H-2A R/B 4.4 14:34:45 10° ESE 14:36:14 11° E 14:37:11 11° E
Cosmos 1269 Rocket 4.3 14:31:15 10° SSW 14:36:35 60° ESE 14:39:35 26° NE
SPOT 1/Viking Rocket 3.5 14:33:03 10° SSE 14:38:25 84° ENE 14:41:50 23° NNW
Meteor 1-10 Rocket 4.2 14:34:45 22° N 14:38:31 82° ENE 14:44:25 10° SSE
SL-08 RB Rocket 4.4 14:34:06 10° S 14:38:37 53° WSW 14:42:33 13° NW
Cosmos 1606 3.2 14:37:23 22° NNW 14:39:43 56° WSW 14:43:33 10° S
Cosmos 1437 Rocket 2.7 14:38:20 10° SSW 14:42:20 77° WNW 14:43:46 37° N
Cosmos 1703 Rocket 3.9 14:39:31 21° NNW 14:42:27 67° WSW 14:46:59 10° S
Cosmos 2233 Rocket 4.0 14:42:30 23° N 14:46:39 84° E 14:53:00 10° S
USA 267 3.5 14:40:16 10° ESE 14:46:51 74° SSW 14:53:26 10° WNW
SJ 16-02 1.8 14:47:36 35° NE 14:48:49 43° ENE 14:53:03 10° SE
GP-B 4.4 14:45:47 10° SSE 14:49:45 29° E 14:51:17 24° ENE
Cosmos 1300 Rocket 4.2 14:47:28 10° S 14:51:44 45° ESE 14:53:25 30° NE
Cosmos 1697 Rocket 2.9 14:49:00 28° N 14:51:46 54° ENE 14:57:21 10° SE
CARTOSAT-1 3.5 14:49:59 10° SSE 14:54:26 78° ENE 14:56:17 34° N
Landsat 7 3.8 14:50:43 10° SSE 14:55:36 84° WSW 14:58:18 27° NNW
Meteor 1-4 Rocket 2.7 14:52:25 10° S 14:56:20 75° ESE 14:57:24 45° NNE
Cosmos 1656 3.7 14:52:27 20° NNW 14:56:29 82° ENE 15:02:19 10° SSE
H-2A R/B 2.9 14:52:42 10° S 14:57:41 47° WSW 15:02:11 12° NW
RESURS DK-1 2.3 14:56:04 34° NNW 14:57:48 75° ENE 15:02:02 10° SE
Cosmos 1048 Rocket 4.0 14:54:02 10° SSW 14:59:19 78° WNW 15:01:44 33° NNE
Okean 1 Rocket 4.1 14:57:42 10° S 15:01:55 37° ESE 15:03:41 26° ENE
ERS-1 Rocket 4.4 14:59:36 10° S 15:04:16 36° WSW 15:08:52 10° NW
Cosmos 158 Rocket 4.5 14:58:56 10° SSW 15:04:16 54° WNW 15:06:45 30° N
Gbstr 26 Del rocket 2.6 15:01:08 10° WSW 15:05:19 79° NNW 15:06:45 37° ENE
SAR-Lupe-4 3.7 15:01:45 10° S 15:05:25 73° WSW 15:06:38 39° NNW
ADEOS Rocket 3.6 15:03:42 26° NNE 15:08:13 74° ESE 15:16:02 10° SSW
Cosmos 1125 Rocket 3.6 15:06:22 33° N 15:08:43 64° ENE 15:14:03 10° SSE
Meteor 1-5 Rocket 4.1 15:03:33 10° SSW 15:09:06 90° WNW 15:11:33 34° N
JB-3 4.3 15:08:31 43° NNE 15:09:47 82° ESE 15:13:52 10° SSW
CZ-2C R/B 3.4 15:06:10 10° SSE 15:10:48 43° E 15:12:17 33° NE
Meteor 1-11 Rocket 4.1 15:05:03 10° SSW 15:11:01 64° W 15:14:03 29° NNW
Terra 1.8 15:06:27 10° SSE 15:11:20 85° WSW 15:13:40 31° NNW
COBE Rocket 3.9 15:10:34 35° NNE 15:12:46 88° WNW 15:18:00 10° SSW
Cosmos 1536 2.8 15:11:34 10° SSW 15:15:43 78° W 15:16:53 45° N
Cosmos 2084 Rocket 4.3 15:11:23 10° SW 15:15:59 43° NW 15:17:18 35° NNW
Resurs 1-4 Rocket 4.4 15:13:53 10° E 15:17:09 17° SE 15:20:25 10° SSE
Cosmos 2322 Rocket 3.8 15:15:55 18° ENE 15:17:12 19° E 15:21:08 10° SE
Meteor 1-27 Rocket 3.9 15:13:55 27° NNW 15:17:22 83° WSW 15:23:26 10° S
USA 234 4.3 15:22:51 23° NNW 15:25:01 27° NW 15:30:32 10° WSW
Cosmos 1975 4.2 15:22:32 10° S 15:26:12 30° ESE 15:27:35 24° ENE
Nadezhda 4 Rocket 4.2 15:20:18 10° S 15:26:29 61° ESE 15:29:37 29° NE
IGS 5A 4.1 15:22:40 10° S 15:26:48 51° WSW 15:28:50 27° NW
Meteor 2-20 Rocket 4.5 15:25:11 10° S 15:31:26 78° ESE 15:34:24 33° NNE
CZ-4C R/B 4.3 15:32:39 10° SE 15:35:48 28° E 15:35:56 28° E
SL-16 R/B 3.3 15:36:39 25° NE 15:38:09 28° ENE 15:42:57 10° SE
GEOS 3 Rocket 3.8 15:35:02 10° SE 15:40:05 68° SW 15:44:55 11° WNW
Okean 3 3.5 15:40:57 49° NNE 15:41:58 70° E 15:46:14 10° SSE
Cosmos 1378 Rocket 3.9 15:42:27 42° NE 15:43:37 56° E 15:48:04 10° SSE
Cosmos 1271 Rocket 3.0 15:41:39 10° S 15:45:28 56° ESE 15:46:16 45° ENE
COSMOS 2455 2.9 15:42:30 10° SW 15:48:35 77° SE 15:52:15 25° NE
Cosmos 1812 2.7 15:47:59 56° N 15:48:47 87° E 15:52:47 10° S
Cosmos 2360 Rocket 4.1 15:47:11 13° ENE 15:48:49 15° E 15:51:50 10° ESE
Cosmos 1980 Rocket 2.1 15:47:06 33° NNW 15:49:47 84° ENE 15:55:30 10° SSE
Mayak 0.9 15:49:31 15° WNW 15:51:06 17° W 15:53:59 10° SW
Cosmos 2263 Rocket 2.4 15:48:04 10° SSW 15:53:50 71° ESE 15:56:57 28° NE
Cosmos 2227 Rocket 4.4 15:52:38 10° WSW 15:54:42 12° W 15:56:46 10° WNW
Okean 1 3.8 15:55:12 41° NE 15:55:57 47° E 15:59:54 10° SSE
Kosmos-1783 3.9 15:56:56 39° W 15:57:33 51° SW 16:01:01 10° SE
Lacrosse 5 rocket 3.2 15:53:38 10° WSW 15:57:35 33° S 16:01:20 10° ESE
Cosmos 1674 Rocket 3.9 16:00:54 38° NW 16:02:22 60° WSW 16:06:46 10° S
Cosmos 1464 Rocket 4.2 15:59:25 28° NNW 16:02:44 63° WSW 16:08:57 10° S
PSLV R/B 4.4 16:02:17 10° SSE 16:03:55 27° ESE 16:03:55 27° ESE
CZ-2D R/B 3.5 16:02:21 15° ENE 16:06:13 34° ESE 16:11:10 10° S
Cosmos 389 Rocket 2.9 16:03:57 10° SSW 16:07:33 50° W 16:07:53 48° WNW
Cosmos 494 Rocket 4.3 16:03:30 10° SSW 16:08:38 54° WNW 16:10:19 38° NNW
MOS 1 Rocket 3.8 16:07:26 30° NE 16:09:51 58° ESE 16:14:41 10° S
PSLV R/B 4.0 16:10:59 41° NNW 16:12:23 57° W 16:17:09 10° SSW
H-2A R/B 2.1 16:08:23 10° SSE 16:12:56 82° ENE 16:14:18 45° N
Cosmos 2026 Rocket 4.3 16:09:03 10° S 16:15:24 63° ESE 16:18:58 27° NNE
Cosmos 1975 Rocket 3.3 16:14:25 43° NNE 16:15:40 62° E 16:20:11 10° SSE
Cosmos 2034 Rocket 4.2 16:12:50 30° NNW 16:16:12 68° WSW 16:22:40 10° S
Cosmos 1743 2.8 16:14:34 10° S 16:18:30 70° ESE 16:19:21 51° NE
CENTAUR R/B 4.0 16:14:59 10° WSW 16:18:32 16° WNW 16:19:36 16° WNW
DELTA 2 DEB (DPAF) 4.2 16:18:16 10° SSE 16:22:52 81° WSW 16:24:22 43° NNW
GP-B 4.2 16:22:58 10° SSW 16:27:07 36° W 16:28:44 27° WNW
SJ 16-02 3.1 16:24:34 14° WNW 16:27:36 27° SW 16:31:25 10° S
Meteor 1-12 Rocket 4.2 16:22:21 10° SSW 16:28:10 77° W 16:30:36 36° N
USA 267 4.1 16:23:09 10° ESE 16:29:29 52° S 16:35:50 10° WSW
Cosmos 1844 Rocket 3.9 16:27:41 10° SSW 16:33:05 40° SE 16:38:23 10° ENE
NPP 3.7 16:32:59 33° NNE 16:35:35 85° ESE 16:41:06 10° SSW
H-2A R/B 2.4 16:34:44 48° N 16:35:50 75° WNW 16:40:00 10° SSW
Cosmos 1697 Rocket 4.1 16:30:51 10° WNW 16:36:02 35° SW 16:41:16 10° SSE
Okean 1 Rocket 4.4 16:35:52 10° SSW 16:39:41 28° W 16:40:52 24° WNW
Cosmos 2251 Rocket 4.0 16:34:32 10° SSW 16:39:46 47° WNW 16:41:30 35° NNW
ALOS 2 2.6 16:35:54 10° SSE 16:40:25 82° WSW 16:41:51 43° NNW
CZ-4B R/B 4.1 16:42:13 10° E 16:42:39 10° E 16:43:05 10° E
ERBS 3.7 16:44:33 27° ENE 16:44:33 27° ENE 16:46:58 10° ESE
Cosmos 1536 Rocket 4.4 16:43:34 30° NE 16:45:10 42° E 16:49:24 10° SSE
Cosmos 1092 Rocket 4.3 16:39:10 10° SSW 16:45:13 56° W 16:48:02 31° NNW
Terra 4.3 16:45:36 10° SSW 16:48:22 15° SW 16:51:07 10° W
CZ-2C R/B 4.4 16:46:24 10° S 16:50:32 29° WSW 16:53:20 17° WNW
Resurs 1-4 Rocket 2.2 16:53:13 28° NNE 16:56:11 79° ESE 17:01:36 10° SSW
AQUA 3.8 16:54:55 36° N 16:56:54 84° WNW 17:01:47 10° SSW
ARIANE 5 R/B 2.9 16:53:57 22° NE 16:57:08 58° ESE 17:02:09 10° S
Meteor 1-19 Rocket 4.2 16:55:02 34° N 16:57:34 84° E 17:03:16 10° SSE
Cosmos 1455 Rocket 3.2 16:54:15 10° SSW 16:58:47 66° W 17:00:14 41° NNW
Cosmos 1634 Rocket 4.0 16:56:58 31° NNW 17:00:06 74° WSW 17:06:24 10° S
Helios 1A Rocket 3.1 16:58:28 33° NE 17:00:12 67° ESE 17:04:19 10° S
Cosmos 2322 Rocket 2.2 16:57:42 31° NW 17:00:33 82° WSW 17:06:19 10° SSE
Cosmos 1975 4.1 16:59:08 10° SSW 17:02:38 28° W 17:03:21 26° WNW
Cosmos 1666 3.4 17:01:19 10° SSW 17:04:57 38° W 17:05:32 36° WNW
Cosmos 1184 Rocket 4.3 17:04:11 24° ENE 17:04:59 27° E 17:07:54 10° SE
Cosmos 1544 Rocket 4.0 17:03:51 10° SSW 17:08:15 51° W 17:09:34 37° NW
NOSS 3-1 (C) 4.2 17:07:10 10° SW 17:13:58 55° SE 17:19:51 10° ENE
BREEZE-M DEB 4.4 17:04:49 10° W 17:16:32 48° NNW 17:20:44 10° NE
IRS-1C 4.2 17:14:26 32° N 17:16:56 65° WNW 17:22:21 10° SSW
CBERS-1 4.4 17:15:17 33° NNW 17:17:19 50° W 17:22:25 10° SSW
Cosmos 2219 Rocket 4.0 17:14:04 13° NE 17:17:24 21° E 17:21:33 10° SE
Cosmos 407 Rocket 3.9 17:12:14 10° SSW 17:17:25 62° ESE 17:22:00 13° NE
Meteor 1-13 Rocket 4.2 17:16:17 31° NNW 17:19:01 76° WSW 17:24:40 10° S
Cosmos 2279 Rocket 4.0 17:18:09 29° NNW 17:21:37 83° W 17:28:01 10° S
SL-16 R/B 2.6 17:18:31 24° NW 17:21:54 60° SW 17:27:36 10° SSE
Meteor 2-4 Rocket 3.7 17:22:10 30° NNW 17:25:12 83° WSW 17:30:58 10° S
Aureole 2 Rocket 2.6 17:30:08 44° N 17:31:08 72° ENE 17:35:00 10° SSE
Cosmos 2360 Rocket 2.2 17:28:56 30° NNW 17:31:54 80° ENE 17:37:36 10° SSE
Cosmos 1025 Rocket 3.6 17:30:43 26° NNE 17:32:59 51° E 17:37:17 10° SSE
COSMOS 2455 4.0 17:29:13 10° SW 17:33:57 24° WNW 17:35:20 22° NW
Cosmos 1980 Rocket 4.0 17:29:56 10° W 17:34:31 25° SW 17:39:08 10° SSE
CZ-2D R/B 4.1 17:31:57 17° NNE 17:35:13 60° ESE 17:39:35 10° S
Landsat 5 4.3 17:30:52 10° SSE 17:35:13 48° E 17:37:41 24° NNE
Cosmos 2263 Rocket 3.5 17:32:51 10° SW 17:37:13 23° WNW 17:38:37 21° WNW
Lacrosse 5 rocket 2.0 17:33:16 10° SW 17:37:25 56° SSE 17:41:18 10° ENE
Cosmos 1242 Rocket 3.9 17:35:22 10° S 17:38:41 35° ESE 17:41:31 13° NE
IRS-1D 3.7 17:36:47 29° NNW 17:39:12 55° W 17:44:14 10° SSW
Genesis I 3.1 17:39:03 37° NW 17:40:31 89° SW 17:44:26 10° SE
Okean 2 3.7 17:38:46 29° NNE 17:40:47 64° E 17:44:58 10° SSE
Cosmos 1655 Rocket 4.4 17:35:04 10° SSW 17:41:08 49° W 17:44:35 25° NNW
CZ-4C R/B 3.0 17:38:15 10° SSE 17:42:00 89° ENE 17:43:18 38° NNW
ADEOS 3.5 17:40:24 21° NNE 17:43:58 83° WNW 17:49:19 10° SSW
CZ-2D R/B 2.6 17:43:40 27° NNW 17:46:11 45° W 17:51:27 10° SSW
Cosmos 2333 Rocket 3.6 17:42:57 14° NNE 17:46:47 29° ENE 17:51:39 10° SE
H-2A R/B 4.4 17:45:35 10° SSW 17:48:22 16° WSW 17:51:10 10° W
Okean O Rocket 4.4 17:46:57 10° ENE 17:50:04 19° ESE 17:53:11 10° SSE
Cosmos 220 Rocket 4.0 17:46:44 10° SSW 17:51:11 65° WNW 17:53:41 25° N
Cosmos 1371 Rocket 4.1 17:48:43 26° NNW 17:51:47 77° ENE 17:57:14 10° SSE
COSMOS 2428 3.2 17:48:24 23° N 17:51:53 54° ENE 17:57:29 10° SE
Meteor 1-15 Rocket 4.5 17:46:57 10° SSW 17:52:42 59° W 17:56:20 23° NNW
ATLAS 5 CENTAUR R/B 3.0 17:48:48 22° N 17:52:48 48° ENE 17:58:44 10° SE
ADEOS II 2.7 17:48:19 10° NE 17:53:30 56° ESE 17:58:44 10° S
Cosmos 1689 Rocket 2.5 17:51:59 10° SSE 17:55:08 62° ENE 17:56:16 34° N
Cosmos 1544 4.3 17:53:23 10° S 17:56:55 39° ESE 18:00:24 10° NE
Cosmos 2058 Rocket 3.7 18:00:47 10° S 18:05:12 54° ESE 18:09:32 10° NNE
Cosmos 2228 3.7 18:01:27 10° S 18:05:54 56° ESE 18:10:18 10° NNE
Cosmos 2278 Rocket 2.6 18:00:33 10° SSW 18:06:18 67° ESE 18:12:00 10° NE
USA 229 DEB 3.8 18:02:56 10° SW 18:09:48 56° WNW 18:16:26 10° NNE
USA 229 3.8 18:03:02 10° SW 18:09:54 56° WNW 18:16:33 10° NNE
Aureole 2 4.1 18:09:24 34° NNW 18:10:39 82° ENE 18:13:43 10° SSE
USA 267 3.8 18:05:34 10° E 18:12:01 62° SSE 18:18:30 10° WSW
Cosmos 2266 Rocket 4.2 18:06:41 10° SSW 18:12:41 55° W 18:16:56 19° NNW
NOSS 3-1 (A) 3.6 18:07:07 10° SW 18:13:56 80° SE 18:19:51 10° NE
Cosmos 614 Rocket 4.0 18:08:54 10° SSW 18:14:15 86° ESE 18:19:31 10° NNE
CZ-4B R/B 1.4 18:12:21 10° S 18:15:36 63° WSW 18:17:06 29° NW
Cosmos 1844 Rocket 3.1 18:11:39 10° SW 18:17:04 45° WNW 18:21:17 16° N
Cosmos 967 Rocket 4.5 18:12:36 21° NW 18:17:06 89° NE 18:23:27 10° SE
Cosmos 1190 Rocket 4.4 18:12:55 10° SW 18:18:02 45° WNW 18:21:38 18° N
ERBS 3.0 18:17:44 17° W 18:20:17 55° SSW 18:23:47 10° SE
Cosmos 1606 Rocket 3.6 18:18:10 10° SSW 18:22:40 65° W 18:25:56 18° N
Cosmos 1805 4.3 18:20:53 10° S 18:24:46 45° ESE 18:28:35 10° NNE
Cosmos 2056 Rocket 3.7 18:21:04 20° NNW 18:24:53 76° WSW 18:30:24 10° SSE
Cosmos 1818 4.3 18:19:39 10° SW 18:25:01 57° SE 18:30:21 10° ENE
PSLV R/B 4.4 18:21:07 10° NE 18:25:22 52° ESE 18:29:44 10° S
Cosmos 2237 Rocket 3.3 18:23:55 11° N 18:28:53 38° ENE 18:34:09 10° SE
Cosmos 2322 4.1 18:24:41 18° NW 18:28:57 56° SW 18:34:40 10° SSE
SL-08 R/B 4.3 18:26:27 10° SSE 18:31:05 44° E 18:35:44 10° N
Cosmos 1741 Rocket 4.5 18:26:10 10° SSW 18:31:34 66° ESE 18:36:55 10° NE
Cosmos 1726 Rocket 3.7 18:27:13 10° SSW 18:31:43 63° W 18:35:21 15° N
Cosmos 1953 4.3 18:28:54 10° S 18:32:30 29° ESE 18:36:06 10° NE
SL-16 R/B 3.6 18:27:03 10° SSE 18:33:03 42° E 18:38:59 10° NNE
Cosmos 1452 Rocket 3.9 18:29:37 15° N 18:33:59 60° ENE 18:39:14 10° SSE
Meteor 2-11 Rocket 4.5 18:29:41 16° NNW 18:34:47 79° W 18:41:04 10° S
BREEZE-M DEB (TANK) 4.4 18:36:36 16° N 18:36:36 16° N 18:38:47 10° NNE
ARIANE 5 R/B 3.8 18:34:17 17° NW 18:36:39 23° W 18:40:39 10° SW
Resurs 1-4 Rocket 3.7 18:34:18 14° WNW 18:36:39 18° W 18:40:19 10° SW
CZ-4B R/B 4.3 18:32:29 10° NE 18:37:45 48° ESE 18:43:10 10° S
Meteor 1-22 Rocket 4.4 18:31:48 10° SSW 18:37:57 78° W 18:44:06 10° N
Cosmos 1844 4.2 18:33:06 10° SW 18:38:30 40° WNW 18:43:54 10° N
SAR-Lupe-2 4.2 18:35:22 10° SSE 18:38:59 52° ENE 18:42:11 12° N
Cosmos 1263 4.1 18:36:43 10° SSW 18:39:44 67° W 18:42:14 15° N
UNKNOWN OBJECT B 3.8 18:37:53 20° NW 18:39:47 30° W 18:43:19 10° SSW
MOS 1-B 4.4 18:35:07 10° NNE 18:40:57 86° WNW 18:46:51 10° SSW
Cosmos 921 Rocket 3.7 18:38:37 12° N 18:42:41 52° ENE 18:47:06 10° SSE
CZ-4B R/B 3.3 18:38:59 10° NNE 18:42:42 61° ESE 18:46:38 10° S
Cosmos 2322 Rocket 4.1 18:41:07 10° W 18:45:31 22° SW 18:49:53 10° SSE
Cosmos 1900 4.4 18:42:56 17° NW 18:46:45 78° SW 18:51:44 10° SE
Cosmos 1340 Rocket 2.8 18:47:41 15° NNW 18:51:05 83° WSW 18:55:10 10° S
PSLV R/B 4.2 18:55:18 10° SSE 18:59:29 69° ENE 19:03:34 10° N
Cosmos 2219 Rocket 2.3 18:55:48 14° NW 19:00:45 75° WSW 19:06:28 10° SSE
Lacrosse 4 Rocket 2.9 18:57:54 10° N 19:01:56 34° ENE 19:06:02 10° SE
Cosmos 1140 Rocket 4.0 18:58:01 10° SW 19:02:52 38° WNW 19:07:40 10° N
NOSS 3-1 (C) 3.8 18:58:35 10° SW 19:04:41 42° WNW 19:10:06 10° N
SL-16 R/B 4.4 19:03:28 10° WSW 19:07:17 18° SSW 19:11:06 10° S
Cosmos 1842 3.3 19:06:00 10° N 19:09:56 87° W 19:13:57 10° S
Cosmos 1812 Rocket 3.8 19:07:01 10° S 19:11:31 79° E 19:16:00 10° NNE
Cosmos 1242 Rocket 4.1 19:10:51 10° SW 19:13:25 19° W 19:15:34 12° NW
Cosmos 2297 3.8 19:07:59 10° SSW 19:13:50 88° ESE 19:19:36 10° NNE
EO 1 Delta rocket 4.2 19:10:49 10° NNW 19:15:21 46° W 19:19:58 10° SSW
Lacrosse 5 rocket 1.8 19:12:46 10° WSW 19:16:30 36° NW 19:20:02 10° NNE
Cosmos 2360 Rocket 3.8 19:11:54 10° W 19:16:34 26° SW 19:21:16 10° SSE
Cosmos 1733 3.5 19:12:41 10° S 19:16:35 72° E 19:20:25 10° NNE
Cosmos 1892 Rocket 4.4 19:13:30 11° NW 19:17:30 39° WSW 19:21:50 10° S
PSLV R/B 4.0 19:14:32 10° N 19:18:23 55° W 19:22:22 10° SSW
Cosmos 1758 3.4 19:15:04 10° SSW 19:19:16 77° W 19:23:22 10° N
Cosmos 1980 3.8 19:13:41 10° NNW 19:19:25 90° SSW 19:25:11 10° SSE
USA 215 3.6 19:13:00 10° ESE 19:19:32 58° NE 19:26:01 10° NW
Cosmos 1850 Rocket 4.2 19:15:07 10° SSW 19:20:13 53° WNW 19:25:17 10° N
Cosmos 1470 3.2 19:16:20 10° S 19:20:20 66° ESE 19:24:19 10° NNE
IRS-1C Rocket 4.3 19:16:15 10° NNE 19:21:35 82° ESE 19:26:58 10° SSW
UNK 3.8 19:17:10 10° SSE 19:21:52 80° WSW 19:26:30 10° NNW
Cosmos 1766 4.3 19:18:26 10° SSW 19:22:00 30° W 19:25:30 10° NNW
Okean O Rocket 1.7 19:21:28 10° N 19:25:56 69° WNW 19:30:29 10° SSW
Cosmos 1420 Rocket 4.2 19:20:39 10° NNW 19:25:59 71° WSW 19:31:25 10° SSE
Cosmos 2333 Rocket 2.6 19:25:10 10° NW 19:30:45 57° SW 19:36:24 10° SSE
Cosmos 1602 Rocket 3.7 19:27:27 10° NNW 19:31:59 77° W 19:36:34 10° S
Cosmos 1356 3.5 19:29:57 10° NNW 19:33:30 79° WSW 19:37:07 10° S
ADEOS II 3.2 19:29:11 10° NNW 19:33:33 26° W 19:37:59 10° SW
Cosmos 1378 4.2 19:31:11 10° N 19:34:49 48° E 19:38:31 10° SSE
CZ-4B DEB 4.3 19:29:44 10° N 19:35:11 60° WNW 19:40:45 10° SSW
ATLAS CENTAUR R/B 4.3 19:35:19 10° NNE 19:36:16 11° NE 19:37:07 10° NE
COSMOS 2428 3.8 19:31:12 10° WNW 19:36:25 35° SW 19:41:40 10° SSE
S3M 4.2 19:30:54 10° NNW 19:37:09 63° WSW 19:43:25 10° S
ATLAS 5 CENTAUR R/B 3.0 19:31:13 10° WNW 19:37:40 53° SW 19:43:31 10° SE
Uosat 12 SS-18 rocket 4.0 19:34:46 10° SW 19:39:04 57° NW 19:43:09 10° NNE
